period_start,C,m1,H,J0,J1,J2,J3,J4,J5,JA,JB,JC,JD,JJ,JK,JN,#
2016-06-02 00:02:48,0.02,1.95,0.00,28.35,31.85,34.33,14.15,47.63,1017.42,2016.00,2711.20,2616.90,2947.90,600.06,586.03,59.57,0000 0000 0000 0000 000000
2016-06-02 00:07:49,0.05,1.95,0.00,28.38,31.86,34.34,14.22,47.71,1017.55,2016.00,2710.68,2616.27,2947.22,599.87,585.77,59.62,0000 0000 0000 0000 000000
2016-06-02 00:12:50,0.02,1.95,0.00,28.41,31.88,34.34,14.23,47.62,1017.30,2016.00,2710.00,2616.00,2946.67,599.86,585.49,59.67,0000 0000 0000 0000 000000
2016-06-02 00:17:52,0.03,1.95,0.00,28.42,31.90,34.34,14.13,47.55,1017.13,2016.00,2709.33,2615.84,2946.03,599.46,585.09,59.72,0000 0000 0000 0000 000000
2016-06-02 00:22:53,0.03,1.96,0.00,28.47,31.91,34.38,14.15,47.56,1017.11,2016.00,2709.00,2615.20,2945.87,599.60,585.19,59.77,0000 0000 0000 0000 000000
2016-06-02 00:27:54,0.00,1.96,0.00,28.49,31.93,34.38,14.14,47.46,1016.95,2015.99,2709.01,2615.01,2945.77,599.76,585.22,59.82,0000 0000 0000 0000 000000
2016-06-02 00:32:55,0.03,1.96,0.00,28.51,31.95,34.40,14.18,47.46,1016.64,2015.99,2708.60,2614.95,2945.12,600.24,585.26,59.87,0000 0000 0000 0000 000000
2016-06-02 00:37:56,0.03,1.96,0.00,28.54,31.97,34.41,14.17,47.60,1016.62,2015.99,2708.03,2614.43,2944.87,599.98,585.07,59.92,0000 0000 0000 0000 000000
2016-06-02 00:42:57,0.02,1.96,0.00,28.56,32.00,34.45,14.17,47.75,1016.49,2015.96,2707.89,2614.01,2944.25,599.84,584.90,59.97,0000 0000 0000 0000 000000
2016-06-02 00:47:58,-0.01,1.96,0.00,28.58,32.02,34.47,14.11,47.63,1016.41,2015.68,2707.40,2613.96,2944.02,599.63,584.69,60.02,0000 0000 0000 0000 000000
2016-06-02 00:53:00,0.01,1.96,0.00,28.60,32.04,34.48,14.19,47.59,1016.24,2015.31,2706.82,2613.31,2943.62,599.90,584.62,60.07,0000 0000 0000 0000 000000
2016-06-02 00:58:01,0.01,1.96,0.00,28.63,32.06,34.54,12.77,42.92,1016.14,2015.13,2706.24,2613.01,2943.04,548.91,534.92,60.12,0000 0000 0000 0000 000009
2016-06-02 01:03:02,-0.02,0.07,0.00,28.65,32.09,34.54,13.60,46.08,1016.13,2017.00,3535.37,3112.80,3537.70,578.84,566.04,0.01,0000 0000 0000 0000 000000
2016-06-02 01:08:04,-0.02,0.00,0.00,28.68,32.10,34.55,14.14,47.87,1015.83,2016.90,3531.84,3111.71,3536.60,599.59,584.03,0.06,0000 0000 0000 0000 000000
2016-06-02 01:13:05,-0.01,0.00,0.00,28.70,32.12,34.55,14.26,47.77,1015.66,2016.85,3530.71,3111.05,3535.86,600.10,584.21,0.11,0000 0000 0000 0000 000000
2016-06-02 01:18:06,-0.00,0.00,0.00,28.74,32.13,34.58,14.20,47.70,1015.76,2016.61,3529.96,3110.95,3535.06,600.10,584.25,0.16,0000 0000 0000 0000 000000
2016-06-02 01:23:07,-0.00,0.00,0.00,28.76,32.15,34.60,14.19,47.72,1015.87,2016.18,3529.11,3110.21,3534.34,600.07,584.38,0.21,0000 0000 0000 0000 000000
2016-06-02 01:28:08,0.00,0.00,0.00,28.78,32.17,34.62,14.12,47.77,1015.85,2016.05,3528.40,3110.00,3533.93,599.79,583.92,0.26,0000 0000 0000 0000 000000
2016-06-02 01:33:10,0.03,0.00,0.00,28.82,32.19,34.66,14.10,47.74,1015.89,2016.03,3527.66,3109.60,3533.15,599.77,583.82,0.31,0000 0000 0000 0000 000000
2016-06-02 01:38:11,0.02,0.00,0.00,28.84,32.21,34.66,14.17,47.77,1015.95,2016.00,3526.95,3109.02,3532.67,600.37,584.53,0.36,0000 0000 0000 0000 000000
2016-06-02 01:43:12,0.02,0.00,0.00,28.85,32.22,34.67,14.16,47.71,1015.72,2016.00,3526.09,3108.80,3532.03,600.00,583.97,0.41,0000 0000 0000 0000 000000
2016-06-02 01:48:14,0.04,0.01,0.00,28.89,32.25,34.68,14.11,47.70,1015.74,2016.00,3525.50,3108.11,3531.54,599.90,583.63,0.46,0000 0000 0000 0000 000000
2016-06-02 01:53:15,0.00,0.01,0.00,28.91,32.26,34.70,14.10,47.72,1015.67,2016.00,3524.98,3108.00,3531.00,599.62,583.39,0.51,0000 0000 0000 0000 000000
2016-06-02 01:58:16,0.04,0.01,0.00,28.91,32.28,34.71,14.09,47.83,1015.64,2015.99,3524.24,3107.55,3530.26,599.90,583.65,0.56,0000 0000 0000 0000 000000
2016-06-02 02:03:17,0.01,0.01,0.00,28.93,32.30,34.73,14.17,47.67,1015.64,2015.96,3523.68,3107.02,3529.98,600.27,584.04,0.61,0000 0000 0000 0000 000000
2016-06-02 02:08:19,0.02,0.01,0.00,28.97,32.32,34.77,14.12,47.76,1015.64,2015.97,3523.01,3106.97,3529.34,599.83,583.54,0.66,0000 0000 0000 0000 000000
2016-06-02 02:13:20,0.02,0.01,0.00,28.99,32.34,34.79,14.18,47.63,1015.65,2015.84,3522.20,3106.26,3528.96,600.01,583.62,0.71,0000 0000 0000 0000 000000
2016-06-02 02:18:21,0.00,0.01,0.00,29.01,32.36,34.80,14.16,47.63,1015.64,2015.52,3521.47,3105.99,3528.14,599.81,583.35,0.76,0000 0000 0000 0000 000000
2016-06-02 02:23:23,0.03,0.01,0.00,29.06,32.38,34.83,14.13,47.42,1015.68,2015.45,3520.74,3105.50,3527.84,599.86,583.35,0.81,0000 0000 0000 0000 000000
2016-06-02 02:28:24,-0.01,0.01,0.00,29.07,32.40,34.85,14.14,47.42,1015.84,2015.16,3520.03,3105.01,3527.06,599.70,583.25,0.86,0000 0000 0000 0000 000000
2016-06-02 02:33:26,0.01,0.01,0.00,29.10,32.42,34.86,14.11,47.31,1015.88,2015.05,3519.63,3104.87,3526.72,599.91,583.54,0.91,0000 0000 0000 0000 000000
2016-06-02 02:38:27,0.03,0.02,0.00,29.13,32.45,34.90,14.16,47.43,1015.66,2015.01,3519.01,3104.19,3526.04,599.89,583.29,0.96,0000 0000 0000 0000 000000
2016-06-02 02:43:28,0.02,0.02,0.00,29.15,32.47,34.91,14.08,47.18,1015.75,2015.00,3518.32,3103.98,3525.64,600.14,583.46,1.01,0000 0000 0000 0000 000000
2016-06-02 02:48:29,0.03,0.02,0.00,29.18,32.50,34.94,14.18,47.39,1015.89,2014.99,3517.86,3103.32,3525.01,600.08,583.53,1.06,0000 0000 0000 0000 000000
2016-06-02 02:53:31,0.02,0.02,0.00,29.21,32.52,34.97,14.10,47.38,1015.68,2014.92,3517.07,3103.00,3524.26,599.91,583.18,1.11,0000 0000 0000 0000 000000
2016-06-02 02:58:32,-0.00,0.02,0.00,29.22,32.55,34.99,14.18,47.43,1015.65,2014.78,3516.74,3102.78,3523.95,600.10,583.31,1.16,0000 0000 0000 0000 000000
2016-06-02 03:03:34,-0.02,0.02,0.00,29.25,32.58,35.01,14.13,47.42,1015.65,2014.26,3516.02,3102.07,3523.18,599.61,582.77,1.21,0000 0000 0000 0000 000000
2016-06-02 03:08:35,0.01,0.02,0.00,29.28,32.61,35.03,14.08,47.27,1015.64,2014.05,3515.28,3101.97,3522.92,599.58,582.70,1.26,0000 0000 0000 0000 000000
2016-06-02 03:13:37,0.04,0.02,0.00,29.31,32.63,35.07,14.10,47.42,1015.64,2014.01,3514.66,3101.23,3522.12,600.01,583.05,1.31,0000 0000 0000 0000 000000
2016-06-02 03:18:38,0.02,0.02,0.00,29.33,32.66,35.09,14.13,47.42,1015.64,2014.00,3513.88,3100.98,3521.62,599.82,582.81,1.37,0000 0000 0000 0000 000000
2016-06-02 03:23:39,0.03,0.02,0.00,29.37,32.69,35.12,14.08,47.37,1015.63,2014.00,3513.07,3100.33,3520.99,600.10,582.99,1.42,0000 0000 0000 0000 000000
2016-06-02 03:28:40,0.02,0.03,0.00,29.42,32.71,35.15,14.19,47.48,1015.35,2013.99,3512.57,3100.00,3520.30,599.86,582.50,1.47,0000 0000 0000 0000 000000
2016-06-02 03:33:41,0.02,0.03,0.00,29.43,32.74,35.17,14.11,47.35,1015.15,2013.97,3511.90,3099.62,3519.94,599.75,582.41,1.52,0000 0000 0000 0000 000000
2016-06-02 03:38:43,0.02,0.03,0.00,29.46,32.77,35.19,14.09,47.30,1015.15,2013.88,3511.09,3099.02,3519.22,599.95,582.41,1.57,0000 0000 0000 0000 000000
2016-06-02 03:43:44,0.00,0.03,0.00,29.50,32.80,35.20,14.19,47.26,1015.15,2013.60,3510.25,3098.64,3518.85,600.21,582.52,1.62,0000 0000 0000 0000 000000
2016-06-02 03:48:45,0.00,0.03,0.00,29.52,32.82,35.24,14.10,47.27,1015.15,2013.15,3509.61,3098.03,3518.08,599.84,582.21,1.67,0000 0000 0000 0000 000000
2016-06-02 03:53:47,0.02,0.03,0.00,29.54,32.85,35.26,14.06,47.14,1015.04,2013.02,3508.91,3097.71,3517.50,599.84,582.19,1.72,0000 0000 0000 0000 000000
2016-06-02 03:58:48,0.03,0.03,0.00,29.57,32.88,35.28,14.15,47.17,1015.10,2013.01,3508.10,3097.09,3516.99,600.03,582.26,1.77,0000 0000 0000 0000 000000
2016-06-02 04:03:49,0.03,0.03,0.00,29.62,32.90,35.31,14.11,47.07,1015.15,2013.00,3507.44,3096.89,3516.45,600.06,582.29,1.82,0000 0000 0000 0000 000000
2016-06-02 04:08:50,0.03,0.03,0.00,29.63,32.93,35.34,14.08,47.17,1015.15,2013.00,3506.62,3096.11,3515.87,600.15,582.33,1.87,0000 0000 0000 0000 000000
2016-06-02 04:13:52,0.01,0.04,0.00,29.67,32.96,35.36,14.21,47.08,1015.15,2012.98,3505.93,3095.92,3515.09,600.43,582.55,1.92,0000 0000 0000 0000 000000
2016-06-02 04:18:53,0.04,0.04,0.00,29.69,32.98,35.38,14.13,47.13,1015.04,2012.90,3505.14,3095.16,3514.29,600.06,581.99,1.97,0000 0000 0000 0000 000000
2016-06-02 04:23:54,-0.01,0.04,0.00,29.72,33.01,35.42,14.06,47.20,1015.03,2012.67,3504.27,3094.87,3513.79,600.28,582.09,2.02,0000 0000 0000 0000 000000
2016-06-02 04:28:56,0.00,0.04,0.00,29.73,33.03,35.44,14.05,47.14,1015.09,2012.26,3503.72,3094.12,3513.05,599.78,581.66,2.07,0000 0000 0000 0000 000000
2016-06-02 04:33:57,0.01,0.04,0.00,29.77,33.06,35.49,14.01,47.06,1014.97,2012.05,3502.98,3093.97,3512.47,599.90,581.79,2.12,0000 0000 0000 0000 000000
2016-06-02 04:38:58,0.03,0.04,0.00,29.80,33.09,35.51,14.02,47.15,1014.72,2012.02,3502.14,3093.23,3511.93,599.59,581.18,2.17,0000 0000 0000 0000 000000
2016-06-02 04:44:00,0.03,0.04,0.00,29.82,33.11,35.53,14.02,47.14,1014.66,2012.00,3501.46,3092.87,3511.12,600.05,581.64,2.22,0000 0000 0000 0000 000000
2016-06-02 04:49:01,0.04,0.04,0.00,29.85,33.14,35.56,14.02,47.08,1014.57,2011.99,3500.71,3092.14,3510.50,599.90,581.30,2.27,0000 0000 0000 0000 000000
2016-06-02 04:54:03,0.01,0.04,0.00,29.89,33.17,35.58,13.99,46.98,1014.39,2011.98,3499.96,3091.97,3509.99,599.69,580.91,2.32,0000 0000 0000 0000 000000
2016-06-02 04:59:04,0.03,0.05,0.00,29.91,33.20,35.61,14.03,47.02,1014.53,2011.93,3499.12,3091.35,3509.39,599.86,581.15,2.37,0000 0000 0000 0000 000000
2016-06-02 05:04:05,-0.02,0.05,0.00,29.92,33.22,35.64,14.03,47.02,1014.67,2011.48,3498.32,3090.94,3508.72,600.08,581.32,2.42,0000 0000 0000 0000 000000
2016-06-02 05:09:06,0.03,0.05,0.00,29.95,33.25,35.65,14.02,46.95,1014.68,2011.18,3497.53,3090.18,3508.03,599.89,581.15,2.47,0000 0000 0000 0000 000000
2016-06-02 05:14:08,0.01,0.05,0.00,29.98,33.28,35.68,14.06,46.95,1014.72,2011.04,3496.78,3089.94,3507.46,599.91,581.16,2.52,0000 0000 0000 0000 000000
2016-06-02 05:19:09,0.03,0.05,0.00,30.02,33.31,35.71,14.02,47.05,1014.88,2011.00,3496.01,3089.16,3506.89,599.92,581.19,2.57,0000 0000 0000 0000 000000
2016-06-02 05:24:10,0.03,0.05,0.00,30.03,33.34,35.74,14.07,47.20,1014.82,2011.00,3495.21,3088.94,3506.10,599.71,580.92,2.62,0000 0000 0000 0000 000000
2016-06-02 05:29:11,0.04,0.05,0.00,30.07,33.37,35.78,14.06,47.07,1014.80,2010.99,3494.58,3088.28,3505.60,600.09,581.18,2.67,0000 0000 0000 0000 000000
2016-06-02 05:34:13,0.01,0.05,0.00,30.10,33.40,35.81,14.11,47.12,1014.78,2010.96,3493.78,3087.92,3504.88,600.01,581.01,2.72,0000 0000 0000 0000 000000
2016-06-02 05:39:14,0.02,0.05,0.00,30.12,33.44,35.83,14.09,47.31,1014.82,2010.76,3492.90,3087.12,3504.07,599.69,580.78,2.77,0000 0000 0000 0000 000000
2016-06-02 05:44:15,0.00,0.05,0.00,30.14,33.46,35.85,14.01,47.25,1014.76,2010.49,3492.05,3086.87,3503.60,599.95,580.97,2.82,0000 0000 0000 0000 000000
2016-06-02 05:49:17,0.01,0.05,0.00,30.18,33.50,35.88,13.98,47.13,1014.99,2010.09,3491.37,3086.11,3502.91,599.72,580.78,2.87,0000 0000 0000 0000 000000
2016-06-02 05:54:18,0.02,0.06,0.00,30.21,33.53,35.91,14.03,47.26,1014.82,2010.01,3490.66,3085.88,3502.11,599.77,580.60,2.92,0000 0000 0000 0000 000000
2016-06-02 05:59:19,0.03,0.06,0.00,30.22,33.56,35.95,14.09,47.19,1014.74,2010.00,3489.91,3085.10,3501.57,599.89,580.75,2.97,0000 0000 0000 0000 000000
2016-06-02 06:04:21,0.02,0.06,0.00,30.25,33.59,35.99,14.03,47.10,1014.74,2010.00,3489.06,3084.78,3500.93,600.18,580.93,3.02,0000 0000 0000 0000 000000
2016-06-02 06:09:22,0.04,0.06,0.00,30.29,33.62,36.03,14.03,47.17,1014.67,2009.96,3488.26,3084.05,3500.10,599.89,580.48,3.07,0000 0000 0000 0000 000000
2016-06-02 06:14:23,0.01,0.06,0.00,30.31,33.65,36.03,14.03,47.27,1014.66,2009.77,3487.68,3083.80,3499.65,599.82,580.39,3.12,0000 0000 0000 0000 000000
2016-06-02 06:19:25,-0.01,0.06,0.00,30.33,33.68,36.06,14.13,47.29,1014.66,2009.23,3486.87,3083.06,3498.93,600.24,580.84,3.17,0000 0000 0000 0000 000000
2016-06-02 06:24:26,0.02,0.06,0.00,30.34,33.71,36.10,14.03,47.37,1014.66,2009.02,3486.01,3082.75,3498.13,599.82,580.38,3.22,0000 0000 0000 0000 000000
2016-06-02 06:29:27,0.04,0.06,0.00,30.39,33.74,36.11,14.11,47.26,1014.66,2009.00,3485.11,3082.04,3497.61,599.93,580.38,3.27,0000 0000 0000 0000 000000
2016-06-02 06:34:28,0.03,0.06,0.00,30.43,33.76,36.15,14.03,47.26,1014.66,2008.99,3484.47,3081.72,3496.96,600.10,580.47,3.32,0000 0000 0000 0000 000000
2016-06-02 06:39:30,0.04,0.07,0.00,30.43,33.80,36.18,14.05,47.11,1014.66,2008.99,3483.61,3081.03,3496.15,600.30,580.45,3.37,0000 0000 0000 0000 000000
2016-06-02 06:44:31,0.01,0.07,0.00,30.45,33.82,36.21,14.03,47.09,1014.66,2008.99,3482.92,3080.89,3495.93,599.71,580.06,3.42,0000 0000 0000 0000 000000
2016-06-02 06:49:33,0.04,0.07,0.00,30.49,33.85,36.24,14.01,47.12,1014.66,2008.95,3482.11,3080.10,3495.14,599.95,580.13,3.47,0000 0000 0000 0000 000000
2016-06-02 06:54:34,-0.00,0.07,0.00,30.54,33.87,36.26,14.06,47.03,1014.67,2008.68,3481.26,3079.81,3494.45,599.99,580.04,3.52,0000 0000 0000 0000 000000
2016-06-02 06:59:35,-0.00,0.07,0.00,30.56,33.90,36.29,14.02,47.10,1014.66,2008.31,3480.72,3079.08,3493.96,600.12,580.25,3.57,0000 0000 0000 0000 000000
2016-06-02 07:04:37,0.01,0.07,0.00,30.59,33.93,36.32,14.03,47.12,1014.67,2008.02,3480.01,3078.86,3493.17,600.01,580.08,3.62,0000 0000 0000 0000 000000
2016-06-02 07:09:38,0.04,0.07,0.00,30.63,33.96,36.36,14.06,47.16,1014.67,2008.00,3479.17,3078.09,3492.63,600.34,580.25,3.68,0000 0000 0000 0000 000000
2016-06-02 07:14:39,0.02,0.07,0.00,30.66,33.99,36.37,14.05,47.17,1014.66,2008.00,3478.49,3077.89,3492.01,600.04,579.93,3.73,0000 0000 0000 0000 000000
2016-06-02 07:19:40,0.04,0.08,0.00,30.69,34.02,36.39,14.04,46.90,1014.69,2007.99,3477.80,3077.20,3491.37,599.89,579.82,3.78,0000 0000 0000 0000 000000
2016-06-02 07:24:41,0.01,0.08,0.00,30.71,34.05,36.41,14.00,47.03,1014.70,2007.97,3476.99,3076.93,3490.88,599.79,579.59,3.83,0000 0000 0000 0000 000000
2016-06-02 07:29:42,0.04,0.08,0.00,30.74,34.07,36.45,14.02,47.06,1014.74,2007.94,3476.21,3076.21,3490.13,599.89,579.69,3.88,0000 0000 0000 0000 000000
2016-06-02 07:34:43,0.01,0.08,0.00,30.76,34.11,36.48,14.01,46.98,1014.91,2007.86,3475.54,3075.99,3489.71,599.93,579.71,3.93,0000 0000 0000 0000 000000
2016-06-02 07:39:44,-0.00,0.08,0.00,30.80,34.13,36.51,14.04,47.03,1015.01,2007.54,3474.85,3075.29,3489.03,600.23,580.02,3.98,0000 0000 0000 0000 000000
2016-06-02 07:44:45,-0.00,0.08,0.00,30.81,34.16,36.54,14.06,46.99,1014.92,2007.08,3474.05,3074.97,3488.27,599.99,579.74,4.03,0000 0000 0000 0000 000000
2016-06-02 07:49:47,0.04,0.08,0.00,30.84,34.19,36.58,14.02,47.00,1014.98,2007.00,3473.33,3074.22,3487.65,599.72,579.46,4.08,0000 0000 0000 0000 000000
2016-06-02 07:54:48,0.01,0.08,0.00,30.89,34.22,36.61,14.01,47.06,1015.04,2006.99,3472.91,3073.98,3487.02,599.85,579.49,4.13,0000 0000 0000 0000 000000
2016-06-02 07:59:49,0.04,0.08,0.00,30.93,34.26,36.61,14.02,47.08,1015.02,2006.90,3472.10,3073.26,3486.31,600.07,579.67,4.18,0000 0000 0000 0000 000000
2016-06-02 08:04:50,-0.02,0.08,0.00,30.97,34.29,36.64,14.05,47.13,1015.12,2006.48,3471.32,3072.88,3485.77,599.97,579.51,4.23,0000 0000 0000 0000 000000
2016-06-02 08:09:52,0.02,0.08,0.00,31.04,34.32,36.67,14.05,47.03,1015.11,2006.06,3470.11,3072.06,3484.87,599.96,579.44,4.28,0000 0000 0000 0000 000000
2016-06-02 08:14:53,0.04,0.09,0.00,31.08,34.36,36.70,13.99,47.07,1015.15,2006.01,3469.39,3071.53,3484.07,599.81,579.18,4.33,0000 0000 0000 0000 000000
2016-06-02 08:19:54,0.03,0.09,0.00,31.12,34.39,36.74,14.03,47.22,1015.16,2006.00,3468.64,3071.01,3483.34,600.12,579.32,4.38,0000 0000 0000 0000 000000
2016-06-02 08:24:55,0.02,0.09,0.00,31.15,34.43,36.77,14.00,47.10,1015.15,2005.91,3467.85,3070.56,3482.67,600.10,579.41,4.43,0000 0000 0000 0000 000000
2016-06-02 08:29:56,0.01,0.09,0.00,31.18,34.46,36.80,14.01,47.02,1015.16,2005.76,3466.98,3070.01,3482.01,600.04,579.25,4.48,0000 0000 0000 0000 000000
2016-06-02 08:34:57,0.01,0.09,0.00,31.22,34.50,36.83,13.98,47.09,1015.16,2005.34,3466.10,3069.42,3481.26,599.79,578.94,4.53,0000 0000 0000 0000 000000
2016-06-02 08:39:58,0.01,0.09,0.00,31.24,34.53,36.87,14.05,47.02,1015.16,2005.07,3465.33,3068.98,3480.81,600.13,579.06,4.58,0000 0000 0000 0000 000000
2016-06-02 08:45:00,0.04,0.09,0.00,31.27,34.57,36.92,13.98,47.15,1015.15,2005.01,3464.49,3068.29,3480.04,600.09,579.03,4.63,0000 0000 0000 0000 000000
2016-06-02 08:50:01,0.02,0.09,0.00,31.31,34.60,36.94,13.99,47.08,1015.16,2005.00,3463.81,3067.92,3479.22,599.86,578.81,4.68,0000 0000 0000 0000 000000
2016-06-02 08:55:02,0.04,0.10,0.00,31.34,34.63,36.98,13.98,47.12,1015.21,2004.99,3462.89,3067.15,3478.59,599.87,578.88,4.73,0000 0000 0000 0000 000000
2016-06-02 09:00:04,0.02,0.10,0.00,31.37,34.67,37.01,14.00,47.03,1015.25,2004.96,3461.95,3066.79,3477.97,599.93,578.83,4.78,0000 0000 0000 0000 000000
2016-06-02 09:05:05,-0.02,0.10,0.00,31.41,34.70,37.03,14.02,47.06,1015.46,2004.52,3461.33,3066.06,3477.19,600.15,578.88,4.83,0000 0000 0000 0000 000000
2016-06-02 09:10:07,0.02,0.10,0.00,31.43,34.74,37.07,13.94,47.02,1015.61,2004.10,3460.49,3065.74,3476.59,599.75,578.66,4.88,0000 0000 0000 0000 000000
2016-06-02 09:15:08,0.02,0.10,0.00,31.48,34.77,37.11,13.94,47.04,1015.58,2004.02,3459.85,3065.05,3475.95,599.79,578.67,4.93,0000 0000 0000 0000 000000
2016-06-02 09:20:10,0.04,0.10,0.00,31.51,34.81,37.13,14.03,47.19,1015.51,2004.00,3459.00,3064.57,3475.13,600.49,579.16,4.98,0000 0000 0000 0000 000000
2016-06-02 09:25:11,0.02,0.10,0.00,31.55,34.84,37.17,14.05,47.10,1015.59,2003.96,3458.13,3064.00,3474.42,599.93,578.61,5.03,0000 0000 0000 0000 000000
2016-06-02 09:30:12,0.02,0.10,0.00,31.60,34.86,37.19,13.98,47.09,1015.64,2003.80,3457.28,3063.50,3473.87,599.97,578.64,5.08,0000 0000 0000 0000 000000
2016-06-02 09:35:13,-0.01,0.10,0.00,31.61,34.90,37.23,14.03,47.22,1015.64,2003.46,3456.40,3062.95,3473.10,600.16,578.70,5.13,0000 0000 0000 0000 000000
2016-06-02 09:40:15,0.01,0.10,0.00,31.65,34.92,37.25,14.10,47.10,1015.63,2003.07,3455.74,3062.17,3472.40,600.18,578.80,5.18,0000 0000 0000 0000 000000
2016-06-02 09:45:16,0.01,0.11,0.00,31.69,34.96,37.29,13.94,47.13,1015.64,2003.00,3455.03,3061.97,3471.92,599.78,578.28,5.23,0000 0000 0000 0000 000000
2016-06-02 09:50:18,0.05,0.11,0.00,31.71,34.99,37.32,13.96,47.07,1015.63,2003.00,3454.21,3061.25,3471.12,599.89,578.39,5.28,0000 0000 0000 0000 000000
2016-06-02 09:55:19,0.03,0.11,0.00,31.76,35.01,37.34,14.01,47.06,1015.63,2002.99,3453.43,3060.82,3470.44,599.98,578.32,5.33,0000 0000 0000 0000 000000
2016-06-02 10:00:20,0.03,0.11,0.00,31.78,35.05,37.38,13.88,47.06,1015.62,2002.94,3452.46,3060.11,3469.84,599.70,578.04,5.38,0000 0000 0000 0000 000000
2016-06-02 10:05:22,-0.02,0.11,0.00,31.82,35.08,37.40,13.95,46.88,1015.57,2002.44,3451.66,3059.64,3469.01,599.91,578.10,5.43,0000 0000 0000 0000 000000
2016-06-02 10:10:23,0.02,0.11,0.00,31.84,35.11,37.45,13.88,47.14,1015.63,2002.15,3450.56,3058.98,3468.25,599.59,577.87,5.48,0000 0000 0000 0000 000000
2016-06-02 10:15:24,0.05,0.11,0.00,31.87,35.14,37.47,14.00,47.06,1015.64,2002.01,3449.24,3058.12,3467.36,600.03,578.27,5.53,0000 0000 0000 0000 000000
2016-06-02 10:20:25,0.17,0.12,0.00,31.92,35.18,37.50,13.98,46.97,1015.44,2002.00,3444.98,3056.13,3465.03,600.10,578.07,5.58,0000 0000 0000 0000 000000
2016-06-02 10:25:27,0.04,0.12,0.00,31.95,35.21,37.53,13.98,46.91,1015.17,2001.99,3442.83,3055.03,3463.75,600.12,577.87,5.63,0000 0000 0000 0000 000000
2016-06-02 10:30:28,0.05,0.13,0.00,31.98,35.24,37.57,14.02,46.94,1015.22,2001.98,3441.56,3054.30,3462.99,600.04,577.73,5.68,0000 0000 0000 0000 000000
2016-06-02 10:35:29,0.03,0.13,0.00,32.02,35.28,37.62,13.92,46.85,1015.53,2001.88,3440.59,3053.78,3462.09,599.84,577.66,5.73,0000 0000 0000 0000 000000
2016-06-02 10:40:31,-0.00,0.13,0.00,32.07,35.31,37.67,13.96,46.91,1015.62,2001.51,3439.82,3053.06,3461.44,599.77,577.56,5.78,0000 0000 0000 0000 000000
2016-06-02 10:45:32,0.00,0.13,0.00,32.11,35.34,37.71,13.96,46.70,1015.64,2001.13,3438.95,3052.73,3460.88,599.79,577.50,5.83,0000 0000 0000 0000 000000
2016-06-02 10:50:33,0.03,0.13,0.00,32.16,35.38,37.77,14.01,46.77,1015.65,2001.02,3438.03,3052.03,3460.09,599.95,577.60,5.88,0000 0000 0000 0000 000000
2016-06-02 10:55:34,0.05,0.13,0.00,32.21,35.41,37.82,13.94,46.82,1015.67,2001.00,3437.07,3051.43,3459.36,600.12,577.54,5.93,0000 0000 0000 0000 000000
2016-06-02 11:00:36,0.05,0.13,0.00,32.24,35.44,37.86,13.98,46.89,1015.66,2001.00,3435.95,3050.71,3458.56,600.00,577.47,5.98,0000 0000 0000 0000 000000
2016-06-02 11:05:37,0.10,0.14,0.00,32.29,35.47,37.92,13.97,46.73,1015.82,2000.99,3433.30,3049.11,3456.64,599.87,577.40,6.04,0000 0000 0000 0000 000000
2016-06-02 11:10:38,0.07,0.15,0.00,32.31,35.50,37.95,13.97,46.70,1016.03,2000.94,3431.38,3047.88,3455.27,600.16,577.68,6.09,0000 0000 0000 0000 000000
2016-06-02 11:15:40,0.09,0.15,0.00,32.34,35.53,37.99,14.01,46.61,1016.10,2000.88,3429.31,3046.68,3453.92,600.29,577.72,6.14,0000 0000 0000 0000 000000
2016-06-02 11:20:41,0.07,0.15,0.00,32.35,35.56,38.00,14.00,46.73,1016.11,2000.71,3426.97,3045.23,3452.33,599.99,577.50,6.19,0000 0000 0000 0000 000000
2016-06-02 11:25:42,0.08,0.16,0.00,32.37,35.59,38.03,14.00,46.68,1016.13,2000.17,3424.22,3043.39,3450.15,599.97,577.49,6.24,0000 0000 0000 0000 000000
2016-06-02 11:30:44,0.12,0.16,0.00,32.38,35.62,38.04,13.97,46.98,1016.13,2000.01,3421.36,3041.36,3447.79,599.88,577.29,6.29,0000 0000 0000 0000 000000
2016-06-02 11:35:45,0.12,0.17,0.00,32.39,35.64,38.06,13.91,46.91,1016.13,2000.00,3418.54,3039.54,3445.60,600.07,577.53,6.34,0000 0000 0000 0000 000000
2016-06-02 11:40:46,0.11,0.17,0.00,32.38,35.66,38.08,14.01,46.73,1016.14,2000.00,3416.25,3037.80,3443.70,600.16,577.55,6.39,0000 0000 0000 0000 000000
2016-06-02 11:45:48,0.10,0.18,0.00,32.37,35.69,38.10,13.99,46.84,1016.13,2000.00,3413.88,3036.29,3441.87,599.88,577.34,6.44,0000 0000 0000 0000 000000
2016-06-02 11:50:49,0.08,0.18,0.00,32.36,35.71,38.12,13.95,46.82,1016.14,2000.00,3412.03,3034.93,3440.39,600.00,577.50,6.49,0000 0000 0000 0000 000000
2016-06-02 11:55:51,0.21,0.19,0.00,32.34,35.72,38.15,13.95,46.77,1016.23,1999.92,3407.71,3032.11,3437.18,599.43,577.08,6.54,0000 0000 0000 0000 000000
2016-06-02 12:00:52,0.07,0.20,0.00,32.30,35.74,38.15,14.07,46.83,1016.23,1999.79,3404.83,3030.31,3435.01,600.21,577.83,6.59,0000 0000 0000 0000 000000
2016-06-02 12:05:53,0.14,0.20,0.00,32.29,35.75,38.18,14.00,46.80,1016.35,1999.45,3401.39,3028.19,3432.64,599.71,577.47,6.64,0000 0000 0000 0000 000000
2016-06-02 12:10:54,0.13,0.21,0.00,32.26,35.76,38.18,13.97,46.77,1016.18,1999.23,3397.24,3025.77,3429.86,600.18,577.86,6.69,0000 0000 0000 0000 000000
2016-06-02 12:15:55,0.07,0.22,0.00,32.22,35.77,38.20,14.02,46.94,1016.18,1999.07,3394.91,3024.42,3428.27,600.18,578.00,6.74,0000 0000 0000 0000 000000
2016-06-02 12:20:57,0.05,0.22,0.00,32.21,35.77,38.22,13.95,47.00,1016.28,1999.01,3393.27,3023.36,3427.00,599.71,577.60,6.79,0000 0000 0000 0000 000000
2016-06-02 12:25:58,0.09,0.22,0.00,32.19,35.77,38.21,13.95,47.10,1016.22,1999.00,3391.13,3022.00,3425.49,599.84,577.70,6.84,0000 0000 0000 0000 000000
2016-06-02 12:30:59,0.10,0.23,0.00,32.16,35.77,38.21,14.06,47.08,1016.52,1999.00,3388.89,3020.61,3423.92,600.06,578.16,6.89,0000 0000 0000 0000 000000
2016-06-02 12:36:00,0.08,0.23,0.00,32.14,35.77,38.20,13.94,46.86,1016.62,1999.00,3386.50,3019.26,3422.31,599.99,578.24,6.94,0000 0000 0000 0000 000000
2016-06-02 12:41:01,0.05,0.24,0.00,32.12,35.77,38.21,14.00,46.95,1016.63,1999.00,3384.96,3018.60,3421.42,599.80,578.05,6.99,0000 0000 0000 0000 000000
2016-06-02 12:46:03,0.07,0.24,0.00,32.10,35.77,38.22,14.06,46.94,1016.62,1999.00,3383.23,3017.59,3420.33,600.25,578.48,7.04,0000 0000 0000 0000 000000
2016-06-02 12:51:04,0.09,0.25,0.00,32.08,35.75,38.24,14.01,46.92,1016.67,1999.00,3380.88,3016.29,3418.80,599.86,578.28,7.09,0000 0000 0000 0000 000000
2016-06-02 12:56:05,0.11,0.25,0.00,32.04,35.75,38.26,14.03,46.92,1016.93,1999.00,3378.22,3014.79,3417.05,600.06,578.56,7.14,0000 0000 0000 0000 000000
2016-06-02 13:01:06,0.15,0.26,0.00,32.02,35.75,38.26,14.00,46.88,1016.80,1999.00,3374.73,3012.72,3414.74,600.18,578.70,7.19,0000 0000 0000 0000 000000